Point Pleasant, West Virginia
Current Conditions -  °F | °C
As of 1:55 AM on Friday 28 Nov 2014 (Local Time) from K3I2 Reporting Station
Overcast Overcast  
Wind Chill: 26°   Ceiling: 5000
Heat Index: 32°   Visibility: 10mi
Dew Point: 21°   Wind: 6mph
Humidity: 64%   Direction: 280°W
Pressure: 30.37"   Gusts: NA
Location:  38.84°N, 82.14°W
Report Text: K3I2 280655Z AUTO 28005KT 10SM OVC050 00/M06 A3037 RMK AO2
Loading
Personal Weather Stations






























Interactive Weather Map New forecast layout! Learn more

10-Day Weather Forecast

Advertisements
Track Severe Weather on mobile